Retour au catalogue

STARLINK-31055

ActifCommunicationsVLEO
NORAD 58539·PAYLOAD·🇺🇸 United States

Lancé Dec 8, 2023 depuis Vandenberg Space Force Base

Loading…

Prochains Passages (prochaines 24 heures)

TLE

FraisSource: CelesTrak SupGP

Époque: Sep 14, 2026, 14:50 UTC

1 58539C 23192J   26257.61854167 -.00025088  00000+0 -74170-3 0  2570
2 58539  53.1568 261.0719 0001412  83.2211 118.6751 15.34383386    15

Suivez STARLINK-31055 en temps réel avec AllMySat

Download on the App Store